Wind_Speed
10 11 11 11 12 13 14 14 14 14 14 15 16 16 15 16 16 16 17 17 17 17 17 17 18 18 18 18 18 19 19 19 19 20 20 21 21 21 22 22 23 23 25 26
11 12 12 12 12 13 13 13 14 14 14 15 16 16 16 16 16 16 16 16 16 16 16 16 16 16 16 16 16 16 16 17 18 19 19 20 21 22 23 24 24 25 26 27
12 13 13 13 13 13 13 14 14 15 15 15 15 16 16 16 15 15 15 15 15 15 16 16 16 15 15 15 16 16 17 17 19 20 21 22 22 23 23 24 26 27 27 28
15 15 15 14 14 14 15 15 15 15 15 15 15 15 15 15 15 15 15 15 15 15 15 16 16 16 16 16 17 17 18 20 21 22 23 23 24 24 25 26 27 28 29 29
17 17 16 16 16 16 16 16 16 16 16 17 16 15 15 15 15 15 15 15 15 16 16 16 16 17 18 19 19 20 20 21 22 23 24 24 24 25 26 27 28 29 30 31
20 20 19 18 18 19 18 17 17 18 18 18 18 17 16 16 16 16 16 16 16 17 17 18 18 19 20 21 21 21 22 23 23 23 25 26 26 27 28 29 30 31 32 32
22 22 21 21 21 21 20 20 19 19 19 19 18 18 18 18 18 17 17 18 18 19 19 20 21 21 22 23 23 24 24 24 25 26 27 28 28 29 29 30 31 32 32 33
24 23 22 22 23 23 22 22 21 20 20 20 19 20 20 20 20 20 20 20 21 22 22 23 23 24 25 25 26 26 27 27 28 29 29 30 30 30 31 32 32 33 33 33
25 24 23 24 24 25 25 24 23 22 21 21 21 22 22 23 23 23 23 23 24 24 25 25 26 26 27 28 28 28 29 30 30 31 31 32 32 32 32 33 33 34 34 34
26 25 26 26 25 26 26 25 24 24 24 24 24 24 25 25 25 25 26 26 26 26 27 28 28 28 28 29 30 31 31 32 33 33 33 34 34 34 35 35 35 36 36 36
28 28 28 26 27 26 26 26 25 26 26 26 27 27 27 27 27 27 27 27 28 28 29 29 30 30 31 32 32 33 34 34 34 35 35 36 36 37 37 37 38 38 38 38
29 29 29 27 27 27 27 27 27 27 27 27 28 27 28 28 28 29 29 29 30 30 30 31 31 32 33 33 34 35 36 36 36 36 37 37 38 38 39 39 39 39 39 40
31 31 30 29 29 29 29 29 29 28 28 29 29 29 30 30 30 30 30 31 31 31 31 32 33 33 34 35 36 37 37 38 38 38 39 39 40 39 39 40 40 41 41 41
32 32 32 31 31 31 31 31 31 31 31 31 31 31 31 31 31 31 31 32 33 33 33 33 34 35 36 36 37 38 39 40 40 40 41 41 41 41 40 40 40 41 41 41
33 34 34 33 33 32 32 32 33 32 32 32 32 32 32 31 31 32 33 34 34 34 34 35 36 36 37 38 39 40 40 41 42 42 42 42 43 42 42 42 42 41 41 42
34 34 34 35 34 34 34 34 34 33 33 32 32 33 33 33 32 33 33 34 35 35 36 36 37 38 39 40 41 41 42 42 43 43 43 43 43 43 43 43 43 43 42 42
35 35 35 35 35 34 34 34 34 33 33 33 33 33 33 33 33 34 35 35 36 36 37 37 38 39 40 41 42 43 43 43 43 43 43 43 43 44 44 44 44 43 43 43
35 35 34 34 34 34 34 34 33 33 33 33 33 33 33 34 34 35 36 37 37 38 38 39 39 40 41 43 43 43 43 42 42 42 42 43 43 44 44 45 44 44 44 44
35 35 34 34 34 33 33 33 33 33 34 34 34 35 35 36 36 36 37 38 38 38 38 39 40 42 43 43 43 43 42 42 42 43 43 44 44 45 45 45 45 45 44 43
34 34 35 34 33 33 33 33 34 34 35 35 35 35 36 36 36 37 37 38 38 38 39 40 41 42 42 42 43 42 42 43 43 44 44 44 45 46 46 45 45 44 42 42
34 34 34 34 33 33 33 34 34 35 35 35 35 35 36 36 37 38 38 39 39 39 40 41 41 41 41 42 41 41 42 42 43 44 45 45 45 45 45 44 43 42 40 39
34 35 35 35 34 34 34 34 34 35 35 35 36 36 37 37 38 38 38 38 38 39 40 41 41 41 41 41 41 41 41 42 43 43 44 44 43 43 43 42 41 40 38 37
35 35 35 35 35 35 35 35 35 35 35 35 36 36 37 38 38 38 38 38 39 39 40 40 40 40 40 40 40 40 41 41 41 42 42 42 42 41 41 40 38 37 35 34
36 36 36 36 36 36 36 36 36 35 36 36 37 37 38 38 39 39 39 39 40 40 40 40 40 40 39 39 39 39 39 40 40 40 40 40 40 39 38 37 35 33 32 31
38 38 37 37 37 37 36 36 36 36 36 37 37 38 38 39 39 39 39 38 38 39 39 39 39 39 38 38 38 38 38 39 39 38 38 38 37 36 35 34 32 30 29 29
39 38 38 38 37 37 37 37 36 37 37 37 38 38 38 38 38 38 38 37 37 38 38 38 37 37 37 37 37 37 37 38 37 36 36 35 34 34 32 30 29 28 27 26
39 38 38 38 38 37 37 37 37 37 37 37 37 37 38 38 38 37 37 37 37 38 37 37 36 36 36 36 36 36 36 36 35 34 33 32 32 31 29 27 26 26 26 25
Wind_Direction
295 293 291 288 288 288 289 291 293 293 289 288 288 289 286 285 283 282 281 281 282 283 286 287 289 290 290 291 293 296 296 295 293 295 296 295 297 297 296 295 295 293 291 289
294 293 294 293 293 292 291 292 294 295 295 292 290 289 288 287 285 283 282 283 283 284 286 288 290 291 291 292 295 298 300 302 301 300 300 299 299 299 299 298 297 295 294 294
294 294 294 296 295 292 292 293 297 299 298 293 291 292 290 289 287 284 285 285 285 287 288 288 290 294 294 294 296 298 301 304 307 305 302 302 302 301 301 300 298 297 296 296
294 293 295 296 294 292 291 291 294 297 296 296 294 293 293 293 291 287 288 287 286 287 290 290 291 293 295 295 296 297 299 301 304 305 305 303 302 301 301 300 299 298 298 298
292 291 293 294 294 294 294 290 290 292 292 293 293 291 291 292 291 289 288 288 286 288 290 291 293 294 295 296 296 297 300 302 304 305 306 305 303 302 302 302 301 300 299 298
289 290 291 292 291 290 291 289 286 289 290 289 289 287 288 289 290 289 286 286 287 289 290 290 292 295 296 298 297 298 300 303 305 306 307 306 304 304 303 302 303 302 300 299
287 288 290 290 290 289 288 288 288 289 287 285 284 283 285 286 288 289 286 285 286 288 290 291 292 295 296 298 296 297 299 301 304 305 306 307 305 303 303 303 304 304 303 302
285 287 288 287 286 285 284 285 286 288 287 285 284 284 284 284 285 285 286 286 285 286 289 290 292 293 294 296 297 298 298 299 301 302 303 305 306 304 303 304 304 304 304 304
283 286 285 284 283 282 283 284 285 287 287 286 284 284 284 284 284 284 285 286 287 286 288 290 292 293 294 295 296 297 298 298 299 300 301 302 304 304 303 303 304 305 304 304
280 281 281 281 282 282 282 283 283 284 285 285 284 284 283 283 284 286 286 286 287 287 288 290 291 293 293 294 295 296 297 297 297 298 299 301 302 303 302 301 302 303 303 303
276 278 278 279 281 283 282 282 282 283 284 285 284 284 283 283 284 285 286 287 287 288 289 290 291 292 292 294 295 296 296 297 297 297 298 300 301 302 302 301 301 302 302 302
274 275 277 279 279 280 280 280 282 283 284 286 285 284 284 284 285 285 285 286 287 288 288 289 290 291 293 294 295 296 296 296 297 297 298 298 299 301 302 302 301 301 302 302
273 274 276 278 279 279 279 280 281 283 285 285 285 285 284 284 284 285 286 286 287 287 288 289 290 291 292 293 295 295 296 296 297 297 297 298 298 299 300 301 302 302 302 301
272 273 274 276 277 278 279 279 280 282 283 284 285 285 285 284 284 285 286 287 287 287 288 289 290 292 293 294 295 296 296 297 297 297 298 298 298 298 299 300 301 301 301 300
272 272 273 274 275 276 277 277 279 280 282 284 285 285 285 285 284 285 287 287 288 288 288 289 290 291 292 294 295 296 296 296 296 297 298 298 298 297 297 298 299 299 299 299
274 273 273 273 274 274 275 276 277 279 281 283 285 285 285 285 286 286 288 288 288 289 289 289 290 291 292 294 296 297 297 296 297 297 298 298 298 298 297 297 298 297 298 298
274 273 272 273 273 274 274 275 276 277 278 280 283 284 286 286 286 288 289 289 289 288 289 290 291 292 293 295 295 296 296 296 297 297 298 298 299 299 298 297 297 296 296 297
273 273 273 273 273 273 273 274 276 277 278 279 281 284 286 287 288 289 290 290 290 289 289 290 291 292 294 295 295 296 296 297 297 298 298 298 299 299 299 299 297 296 295 294
272 272 273 274 274 273 274 274 275 277 279 280 282 283 285 287 289 291 292 292 291 290 290 291 292 293 294 295 295 295 296 297 298 299 299 299 300 300 300 300 298 296 295 294
272 273 275 276 276 275 274 275 277 278 279 281 283 284 286 287 289 291 293 293 292 292 292 293 294 295 296 296 296 296 296 297 298 299 300 300 299 300 300 300 299 298 295 294
273 275 277 278 278 277 276 276 277 278 279 281 283 285 286 288 290 292 294 294 294 293 294 294 295 296 297 297 298 297 297 298 299 300 300 300 300 301 301 300 299 298 296 294
273 274 276 277 278 277 277 277 277 278 280 282 285 286 288 289 291 293 294 295 295 295 296 297 297 298 298 299 299 299 299 299 300 301 301 301 301 302 302 301 300 298 297 295
272 273 274 276 277 277 277 277 278 279 281 283 286 287 289 290 291 292 294 295 296 296 297 298 299 300 300 301 300 300 301 302 302 303 303 303 303 304 303 302 300 298 297 296
272 273 274 275 275 275 276 278 278 279 281 283 285 287 288 290 292 293 294 295 295 297 297 298 298 300 301 301 301 302 303 304 304 304 303 304 304 305 305 304 301 299 297 296
271 272 273 274 274 275 275 277 278 279 280 282 284 285 287 290 291 293 294 295 296 297 298 299 299 300 301 302 302 304 305 306 306 306 306 305 305 305 305 304 302 300 299 298
269 270 272 273 274 275 275 277 278 279 280 281 283 285 287 289 291 292 293 294 296 297 299 299 299 300 300 301 302 304 306 307 307 307 308 307 306 306 305 303 301 301 300 300
268 269 271 272 272 274 275 277 279 279 280 281 283 284 286 288 290 291 292 294 296 297 299 300 300 300 300 301 303 305 307 308 308 308 309 309 308 307 305 303 302 301 301 300
Height
5666 5665 5664 5663 5663 5661 5660 5659 5658 5657 5655 5654 5651 5650 5649 5647 5646 5646 5645 5644 5642 5641 5640 5639 5637 5636 5634 5632 5630 5628 5626 5624 5622 5620 5617 5615 5613 5610 5608 5606 5604 5602 5600 5599
5664 5663 5661 5660 5660 5658 5657 5656 5654 5652 5652 5650 5648 5646 5645 5644 5642 5642 5641 5639 5638 5637 5636 5635 5633 5631 5630 5628 5626 5625 5622 5620 5618 5616 5613 5611 5609 5606 5604 5601 5599 5597 5595 5593
5662 5660 5659 5658 5657 5655 5654 5653 5651 5649 5649 5646 5645 5643 5641 5640 5639 5637 5637 5636 5635 5633 5632 5630 5629 5627 5626 5624 5623 5621 5619 5617 5614 5612 5609 5606 5604 5601 5598 5596 5593 5591 5588 5586
5658 5658 5656 5658 5654 5652 5651 5649 5648 5646 5644 5643 5641 5639 5638 5636 5635 5634 5633 5632 5631 5629 5628 5627 5625 5624 5622 5620 5618 5617 5615 5612 5610 5607 5604 5601 5599 5596 5593 5590 5587 5584 5582 5579
5654 5653 5652 5653 5650 5648 5646 5646 5644 5642 5640 5639 5637 5636 5634 5633 5631 5630 5629 5628 5627 5626 5624 5623 5621 5619 5618 5616 5614 5612 5610 5607 5605 5602 5599 5596 5593 5590 5587 5584 5581 5577 5574 5571
5650 5648 5648 5649 5646 5643 5643 5641 5640 5638 5636 5634 5633 5632 5631 5629 5627 5626 5625 5624 5623 5621 5620 5618 5617 5615 5613 5611 5609 5607 5604 5602 5599 5596 5593 5590 5587 5584 5581 5578 5574 5571 5567 5563
5644 5642 5643 5643 5640 5638 5638 5637 5634 5632 5631 5629 5628 5627 5626 5624 5623 5622 5620 5619 5618 5617 5615 5614 5612 5610 5608 5606 5603 5601 5598 5596 5593 5590 5587 5584 5581 5577 5574 5571 5567 5563 5559 5555
5638 5637 5639 5636 5634 5633 5632 5630 5628 5626 5625 5624 5623 5622 5621 5619 5618 5617 5615 5614 5613 5611 5610 5608 5606 5604 5602 5599 5597 5594 5592 5589 5586 5583 5580 5577 5574 5570 5566 5563 5559 5555 5551 5547
5633 5634 5632 5629 5627 5626 5625 5624 5622 5621 5620 5618 5617 5616 5615 5614 5612 5611 5610 5608 5607 5605 5603 5601 5599 5597 5595 5593 5590 5587 5584 5582 5579 5576 5572 5569 5566 5562 5558 5554 5551 5547 5543 5538
5625 5626 5624 5622 5620 5619 5618 5617 5616 5614 5613 5612 5611 5610 5609 5607 5606 5605 5603 5601 5600 5598 5596 5594 5592 5590 5587 5585 5582 5580 5577 5574 5570 5567 5564 5560 5556 5553 5549 5545 5541 5537 5533 5529
5617 5618 5616 5616 5614 5612 5611 5610 5609 5608 5606 5605 5604 5603 5601 5600 5599 5597 5596 5594 5592 5590 5588 5586 5583 5581 5579 5576 5574 5571 5568 5565 5561 5558 5555 5551 5547 5543 5539 5535 5531 5527 5523 5519
5610 5609 5608 5609 5607 5605 5604 5603 5602 5601 5600 5598 5596 5595 5594 5592 5591 5589 5588 5586 5584 5582 5580 5577 5575 5572 5570 5567 5564 5562 5558 5555 5552 5548 5545 5541 5537 5533 5528 5524 5520 5515 5511 5507
5601 5600 5600 5599 5599 5597 5596 5596 5594 5593 5592 5590 5589 5587 5586 5584 5582 5581 5579 5577 5575 5573 5571 5568 5566 5563 5560 5558 5555 5551 5548 5545 5541 5538 5534 5530 5526 5522 5518 5514 5509 5504 5500 5496
5591 5591 5591 5590 5590 5589 5588 5587 5586 5585 5583 5582 5580 5579 5577 5575 5574 5572 5570 5568 5565 5563 5561 5558 5556 5553 5550 5547 5544 5541 5537 5534 5530 5526 5522 5518 5514 5510 5506 5502 5498 5493 5488 5484
5582 5581 5581 5581 5581 5580 5578 5577 5577 5576 5574 5573 5572 5570 5568 5566 5564 5562 5560 5558 5556 5553 5551 5548 5546 5543 5540 5536 5533 5530 5526 5522 5518 5514 5510 5505 5501 5497 5493 5489 5485 5481 5477 5472
5572 5571 5571 5570 5570 5569 5569 5568 5567 5566 5565 5564 5562 5561 5559 5557 5555 5553 5550 5548 5546 5543 5540 5538 5535 5532 5529 5525 5522 5518 5514 5509 5505 5501 5497 5492 5488 5484 5480 5476 5472 5468 5465 5460
5561 5560 5560 5560 5560 5559 5558 5557 5557 5556 5555 5554 5552 5551 5549 5547 5545 5543 5540 5538 5535 5532 5529 5527 5524 5521 5517 5513 5509 5505 5501 5497 5492 5488 5484 5479 5475 5471 5467 5463 5459 5455 5452 5447
5549 5549 5550 5549 5549 5548 5548 5547 5546 5546 5545 5543 5542 5541 5539 5537 5535 5533 5530 5527 5524 5521 5518 5515 5512 5508 5505 5501 5497 5492 5488 5484 5480 5476 5471 5467 5462 5458 5453 5449 5445 5442 5438 5434
5538 5539 5539 5539 5538 5538 5537 5537 5536 5535 5534 5533 5532 5531 5529 5527 5525 5522 5519 5516 5513 5510 5507 5503 5500 5496 5492 5488 5484 5480 5476 5472 5468 5463 5458 5454 5449 5445 5440 5436 5432 5428 5424 5420
5528 5528 5528 5528 5528 5527 5527 5526 5526 5525 5524 5523 5521 5520 5518 5516 5514 5511 5508 5504 5501 5498 5495 5492 5488 5484 5480 5476 5471 5467 5463 5459 5455 5450 5446 5441 5437 5432 5427 5422 5418 5414 5410 5407
5518 5518 5518 5518 5518 5517 5517 5516 5515 5514 5513 5512 5510 5509 5507 5505 5502 5499 5496 5494 5490 5486 5483 5480 5476 5472 5468 5464 5459 5455 5451 5447 5442 5438 5433 5428 5424 5419 5414 5409 5405 5401 5397 5394
5507 5507 5507 5507 5507 5506 5506 5505 5504 5503 5502 5501 5499 5498 5496 5493 5491 5488 5485 5482 5479 5475 5472 5468 5464 5460 5456 5452 5447 5443 5439 5435 5430 5425 5420 5416 5411 5406 5402 5397 5393 5389 5385 5382
5496 5496 5496 5496 5496 5495 5495 5494 5493 5492 5491 5490 5488 5487 5484 5482 5480 5477 5474 5471 5467 5464 5461 5457 5453 5449 5444 5440 5436 5432 5427 5423 5418 5413 5408 5404 5399 5394 5390 5385 5381 5377 5374 5371
5485 5485 5485 5485 5484 5484 5483 5483 5482 5481 5480 5478 5477 5475 5473 5471 5468 5465 5462 5459 5456 5453 5449 5445 5441 5437 5433 5429 5425 5420 5416 5411 5406 5401 5397 5392 5388 5383 5379 5375 5371 5367 5364 5361
5473 5473 5473 5473 5472 5472 5472 5471 5470 5469 5468 5467 5465 5464 5461 5459 5457 5454 5451 5448 5445 5441 5438 5434 5430 5426 5422 5418 5414 5410 5405 5400 5395 5391 5386 5382 5378 5373 5369 5365 5361 5358 5356 5353
5461 5461 5461 5461 5460 5460 5460 5459 5458 5457 5456 5455 5454 5452 5450 5448 5445 5443 5440 5437 5434 5430 5427 5423 5419 5415 5412 5408 5403 5399 5394 5390 5385 5381 5376 5372 5368 5364 5360 5356 5353 5351 5348 5346
5448 5448 5449 5449 5449 5448 5447 5447 5446 5445 5444 5443 5442 5440 5438 5436 5434 5431 5428 5426 5423 5419 5416 5412 5408 5405 5401 5397 5393 5389 5384 5380 5376 5371 5367 5363 5359 5356 5352 5349 5346 5344 5341 5339